Home   Weather   Poznan   Past weeks

Flag for Poland Past Weather in Poznan, Poland — Yesterday and Last 2 Weeks

Now
45 °F

Passing clouds.


Feels Like: 39 °F
Forecast: 31 / 45 °F
Wind: 10 mph from Southwest

Location: Poznan Airport

Current Time: Feb 23, 2017 at 9:52:33 pm

Latest Report: Feb 23, 2017 at 9:00 pm


Visibility: N/A

Pressure: 29.18 "Hg

Humidity: 93%

Dew Point: 43 °F

Location of PoznanLocation

Past Weather in Poznan — Graph

°F

Poznan Temperature Yesterday

Maximum temperature yesterday: 50 °F (at 1:30 pm)
Minimum temperature yesterday: 34 °F (at 3:00 am)
Average temperature yesterday: 41 °F

High & Low Weather Summary for the Past Weeks

 TemperatureHumidityPressure
High50 °F (Feb 15, 1:00 pm)100% (Feb 14, 5:30 am)30.72 "Hg (Feb 14, 5:30 am)
Low16 °F (Feb 13, 4:30 am)32% (Feb 15, 1:00 pm)29.18 "Hg (Feb 23, 8:30 pm)
Average32 °F79%30.22 "Hg
* Reported Feb 8 8:00 pm — Feb 23 8:30 pm, Poznan, Weather by CustomWeather, © 2017

Note: Actual official high and low records may vary slightly from our data, if they occured in-between our weather recording intervals... More about our weather records

Advertising

Poznan Weather History for the Previous 24 Hours

Scroll right to see more
 ConditionsComfort  
Time TempWeatherWind HumidityBarometerVisibility
8:30 pm
Thu, Feb 23
45 °FLight rain. Low clouds.10 mph93%29.18 "Hg4 mi
8:00 pm45 °FLight rain. Fog.9 mph93%29.21 "Hg3 mi
7:30 pm45 °FLight rain. Fog.9 mph93%29.21 "Hg3 mi
7:00 pm45 °FLight rain. Fog.10 mph93%29.21 "Hg3 mi
6:30 pm45 °FLight rain. Fog.9 mph93%29.24 "Hg3 mi
6:00 pm45 °FLight rain. Fog.12 mph93%29.27 "Hg3 mi
5:30 pm43 °FLight rain. Fog.10 mph100%29.27 "Hg3 mi
5:00 pm43 °FLight rain. Fog.10 mph93%29.30 "Hg3 mi
4:30 pm43 °FLight rain. Partly sunny.9 mph93%29.33 "Hg4 mi
4:00 pm43 °FLight rain. Fog.9 mph93%29.36 "Hg3 mi
3:30 pm43 °FLight rain. Partly sunny.8 mph93%29.36 "Hg5 mi
3:00 pm43 °FLight rain. Overcast.8 mph87%29.39 "Hg4 mi
2:30 pm43 °FLight rain. Overcast.10 mph87%29.42 "HgN/A
2:00 pm45 °FOvercast.15 mph71%29.42 "HgN/A
1:30 pm48 °FPassing clouds.13 mph66%29.42 "HgN/A
1:00 pm46 °FPassing clouds.12 mph66%29.45 "HgN/A
12:30 pm46 °FPassing clouds.16 mph66%29.45 "HgN/A
12:00 pm48 °FPassing clouds.15 mph58%29.47 "HgN/A
11:30 am46 °FPassing clouds.15 mph66%29.47 "HgN/A
11:00 am48 °FPassing clouds.16 mph66%29.47 "HgN/A
10:30 am45 °FScattered clouds.18 mph71%29.47 "HgN/A
10:00 am45 °FPartly sunny.17 mph71%29.47 "HgN/A
9:30 am43 °FPartly sunny.14 mph76%29.47 "HgN/A
9:00 am43 °FPartly sunny.15 mph76%29.47 "HgN/A
8:30 am41 °FPartly sunny.12 mph87%29.47 "HgN/A
8:00 am41 °FPartly sunny.14 mph81%29.47 "HgN/A
7:30 am41 °FPartly sunny.14 mph81%29.47 "HgN/A
7:00 am41 °FPartly sunny.14 mph81%29.45 "HgN/A
6:30 am41 °FPassing clouds.14 mph81%29.45 "HgN/A
6:00 am41 °FPassing clouds.14 mph81%29.45 "HgN/A
5:30 am39 °FPassing clouds.14 mph87%29.45 "HgN/A
5:00 am39 °FPassing clouds.14 mph87%29.45 "HgN/A
4:30 am39 °FPassing clouds.13 mph87%29.45 "HgN/A
4:00 am39 °FPartly cloudy.14 mph87%29.45 "HgN/A
3:30 am39 °FPassing clouds.13 mph87%29.45 "HgN/A
3:00 am39 °FPassing clouds.14 mph87%29.45 "HgN/A
2:30 am39 °FPassing clouds.14 mph87%29.45 "HgN/A
2:00 am39 °FPassing clouds.15 mph87%29.45 "HgN/A
1:30 am39 °FPartly cloudy.15 mph87%29.47 "HgN/A
1:00 am39 °FPassing clouds.16 mph87%29.45 "HgN/A
12:30 am37 °FPassing clouds.14 mph87%29.45 "HgN/A
12:00 am39 °FClear.16 mph81%29.45 "Hg10 mi
11:30 pm
Wed, Feb 22
39 °FClear.16 mph81%29.45 "Hg10 mi
11:00 pm39 °FClear.15 mph81%29.45 "Hg10 mi
10:30 pm37 °FClear.12 mph87%29.45 "Hg10 mi
10:00 pm39 °FPassing clouds.13 mph87%29.45 "HgN/A
9:30 pm39 °FSprinkles. Mostly cloudy.21 mph87%29.42 "HgN/A
9:00 pm43 °FSprinkles. Mostly cloudy.26 mph66%29.45 "HgN/A
Weather by CustomWeather, © 2017

See weather overviewHow to use our weather pages